TimeCDT,TemperatureF,Dew PointF,Humidity,Sea Level PressureIn,VisibilityMPH,Wind Direction,Wind SpeedMPH,Gust SpeedMPH,PrecipitationIn,Events,Conditions,WindDirDegrees,DateUTC
12:54 AM,66.0,42.1,42,30.17,10.0,NNE,12.7,-,N/A,,Mostly Cloudy,20,2012-09-13 05:54:00
1:54 AM,64.0,42.1,45,30.17,10.0,NNE,9.2,-,N/A,,Mostly Cloudy,20,2012-09-13 06:54:00
2:54 AM,64.9,39.9,40,30.19,10.0,NNE,9.2,-,N/A,,Overcast,30,2012-09-13 07:54:00
3:54 AM,63.0,41.0,45,30.20,10.0,NNE,13.8,-,N/A,,Scattered Clouds,20,2012-09-13 08:54:00
4:54 AM,61.0,44.1,54,30.22,10.0,NNE,13.8,-,N/A,,Scattered Clouds,20,2012-09-13 09:54:00
5:54 AM,59.0,46.9,64,30.25,10.0,NNE,17.3,-,N/A,,Mostly Cloudy,30,2012-09-13 10:54:00
6:54 AM,57.9,45.0,62,30.28,10.0,NNE,15.0,-,N/A,,Overcast,20,2012-09-13 11:54:00
7:54 AM,57.9,44.1,60,30.29,10.0,NNE,13.8,-,N/A,,Overcast,30,2012-09-13 12:54:00
8:54 AM,60.1,44.1,55,30.30,10.0,NNE,15.0,21.9,N/A,,Overcast,30,2012-09-13 13:54:00
9:54 AM,60.1,45.0,57,30.32,10.0,NNE,11.5,-,N/A,,Overcast,30,2012-09-13 14:54:00
10:54 AM,60.1,44.1,55,30.33,10.0,NNE,13.8,-,N/A,,Overcast,20,2012-09-13 15:54:00
11:54 AM,60.1,44.1,55,30.32,10.0,North,11.5,-,N/A,,Overcast,10,2012-09-13 16:54:00
12:54 PM,55.0,46.9,74,30.34,9.0,North,15.0,-,0.00,Rain,Light Rain,350,2012-09-13 17:54:00
1:54 PM,54.0,48.9,83,30.34,10.0,NNE,8.1,-,0.05,Rain,Light Rain,30,2012-09-13 18:54:00
2:54 PM,54.0,50.0,86,30.35,4.0,North,8.1,-,0.02,Rain,Light Rain,360,2012-09-13 19:54:00
3:15 PM,53.6,50.0,88,30.34,2.5,Variable,3.5,-,0.02,Rain,Light Rain,0,2012-09-13 20:15:00
3:29 PM,53.6,51.8,94,30.34,2.5,Variable,5.8,-,0.06,Rain,Rain,0,2012-09-13 20:29:00
3:45 PM,53.6,51.8,94,30.34,3.0,NE,9.2,-,0.09,Rain,Light Rain,40,2012-09-13 20:45:00
3:54 PM,54.0,51.1,90,30.35,3.0,NNE,5.8,-,0.10,Rain,Light Rain,30,2012-09-13 20:54:00
4:48 PM,55.4,51.8,88,30.33,3.0,North,6.9,-,0.05,Rain,Light Rain,10,2012-09-13 21:48:00
4:54 PM,55.0,52.0,89,30.33,3.0,North,6.9,-,0.05,Rain,Light Rain,10,2012-09-13 21:54:00
5:54 PM,54.0,51.1,90,30.34,8.0,North,6.9,-,0.02,Rain,Light Rain,10,2012-09-13 22:54:00
6:54 PM,54.0,51.1,90,30.34,10.0,North,3.5,-,0.03,Rain,Light Rain,10,2012-09-13 23:54:00
7:54 PM,54.0,51.1,90,30.36,10.0,NNW,3.5,-,0.00,,Mostly Cloudy,340,2012-09-14 00:54:00
8:54 PM,53.1,51.1,93,30.37,10.0,NNW,3.5,-,N/A,,Mostly Cloudy,330,2012-09-14 01:54:00
9:54 PM,53.1,51.1,93,30.37,10.0,Calm,Calm,-,N/A,,Mostly Cloudy,0,2012-09-14 02:54:00
10:54 PM,52.0,50.0,93,30.37,6.0,Calm,Calm,-,N/A,Fog,Patches of Fog,0,2012-09-14 03:54:00
11:27 PM,50.0,48.2,94,30.35,2.5,South,4.6,-,N/A,,Mostly Cloudy,180,2012-09-14 04:27:00
11:48 PM,50.0,48.2,94,30.36,1.5,Calm,Calm,-,N/A,,Mostly Cloudy,0,2012-09-14 04:48:00
11:54 PM,50.0,48.0,93,30.36,1.5,Calm,Calm,-,N/A,,Mostly Cloudy,0,2012-09-14 04:54:00
11:58 PM,50.0,48.2,94,30.36,1.0,Calm,Calm,-,N/A,,Mostly Cloudy,0,2012-09-14 04:58:00